Flag for Norway Weather past 2 weeks in Larvik, Norway

Now
39 °F

Fog.


Feels Like: 36 °F
Forecast: 37 / 42 °F
Wind: 5 mph from Southwest

Location: Torp

Current Time: Feb 27, 2015 at 9:10:15 AM

Latest Report: Feb 27, 2015 at 8:20 AM


Visibility: 1 mi

Pressure: 29.68 "Hg

Humidity: 100%

Dew point: 39 °F

Location of LarvikLocation

Historic Weather in Larvik — Graph

°F

Larvik temperature yesterday

Maximum temperature yesterday: 39 °F (at 7:50 PM)
Minimum temperature yesterday: 28 °F (at 1:50 AM)
Average temperature yesterday: 35 °F

Past Weeks' High & Low Weather Summary

 TemperatureHumidityPressure
High43 °F (Feb 12, 2:50 PM)100% (Feb 12, 9:20 PM)30.48 "Hg (Feb 12, 9:20 PM)
Low28 °F (Feb 13, 2:50 AM)42% (Feb 22, 2:20 PM)28.97 "Hg (Feb 23, 11:50 AM)
Average36 °F88%29.77 "Hg
* Reported Feb 12 7:20 AM — Feb 27 7:50 AM, Larvik, Weather by CustomWeather, © 2015

Note: Actual official high and low records may vary slightly from our data, if they occured in-between our weather recording intervals... More about our weather records

Advertising

Larvik weather history for previous 24 hours

 ConditionsComfort  
Time TempWeatherWind HumidityBarometerVisibility
7:50 AM
Fri, Feb 27
39 °FDrizzle. Fog.5 mph100%29.65 "Hg1 mi
7:20 AM39 °FDrizzle. Fog.8 mph100%29.65 "Hg2 mi
6:50 AM39 °FDrizzle. Fog.12 mph100%29.65 "Hg2 mi
6:20 AM39 °FDrizzle. Fog.12 mph93%29.65 "Hg2 mi
5:50 AM37 °FFog.14 mph100%29.65 "Hg2 mi
5:20 AM37 °FDrizzle. Fog.15 mph100%29.65 "Hg2 mi
4:50 AM37 °FLight rain. Fog.14 mph100%29.65 "Hg2 mi
4:20 AM37 °FLight rain. Low clouds.14 mph100%29.65 "Hg2 mi
3:50 AM37 °FLight rain. Low clouds.15 mph93%29.68 "Hg4 mi
3:20 AM37 °FLight rain. Mostly cloudy.17 mph93%29.68 "Hg2 mi
2:50 AM37 °FLight rain. Mostly cloudy.20 mph93%29.68 "Hg3 mi
2:20 AM37 °FLight rain. Mostly cloudy.20 mph93%29.68 "Hg2 mi
1:50 AM37 °FLight rain. Low clouds.17 mph93%29.71 "Hg2 mi
1:20 AM37 °FLight rain. Low clouds.21 mph93%29.71 "Hg2 mi
12:50 AM37 °FLight rain. Low clouds.23 mph93%29.71 "Hg2 mi
12:20 AM37 °FLight rain. Mostly cloudy.22 mph93%29.71 "Hg2 mi
11:50 PM
Thu, Feb 26
37 °FLight rain. Mostly cloudy.25 mph93%29.71 "Hg2 mi
11:20 PM37 °FLight rain. Fog.18 mph93%29.74 "Hg2 mi
10:50 PM37 °FLight rain. Mostly cloudy.18 mph93%29.74 "Hg2 mi
9:50 PM37 °FLight rain. Partly cloudy.22 mph93%29.74 "Hg3 mi
9:20 PM39 °FPartly cloudy.21 mph87%29.74 "Hg3 mi
8:50 PM39 °FLight rain. Passing clouds.21 mph87%29.77 "Hg4 mi
8:20 PM39 °FPassing clouds.21 mph87%29.77 "Hg4 mi
7:50 PM39 °FLow clouds.18 mph93%29.77 "Hg4 mi
7:20 PM37 °FLow clouds.20 mph93%29.77 "Hg4 mi
6:50 PM37 °FLow clouds.20 mph93%29.80 "Hg4 mi
6:20 PM37 °FLow clouds.16 mph93%29.80 "Hg4 mi
5:50 PM37 °FLow clouds.20 mph93%29.80 "Hg4 mi
5:20 PM37 °FLow clouds.20 mph93%29.80 "Hg4 mi
4:50 PM37 °FLow clouds.18 mph93%29.83 "Hg4 mi
4:20 PM37 °FBroken clouds.17 mph93%29.83 "Hg4 mi
3:50 PM37 °FBroken clouds.16 mph87%29.86 "HgN/A
3:20 PM37 °FPartly sunny.18 mph87%29.86 "HgN/A
2:50 PM37 °FPartly sunny.18 mph87%29.86 "Hg6 mi
2:20 PM37 °FPartly sunny.20 mph93%29.89 "Hg4 mi
1:50 PM37 °FPartly sunny.16 mph93%29.89 "Hg5 mi
1:20 PM37 °FMostly cloudy.18 mph93%29.89 "HgN/A
12:50 PM37 °FLow clouds.16 mph93%29.92 "Hg4 mi
12:20 PM36 °FPartly sunny.18 mph93%29.92 "Hg4 mi
11:50 AM37 °FPartly sunny.18 mph87%29.92 "Hg6 mi
11:20 AM36 °FPartly sunny.21 mph93%29.95 "HgN/A
10:50 AM37 °FPartly sunny.21 mph87%29.95 "HgN/A
10:20 AM36 °FMostly cloudy.20 mph93%29.95 "HgN/A
9:50 AM36 °FMostly cloudy.17 mph93%29.95 "HgN/A
9:20 AM36 °FPartly sunny.20 mph93%29.98 "Hg5 mi
Weather by CustomWeather, © 2015

See weather overviewHow to use our weather pages